Kremmling, CO

12:14 AM MST on November 15, 2019 (GMT -0700)
Kremmling

Weather History for K20V - September, 2019

Change the Weather History Date:

Monday, September 9, 2019

  Actual Average Record
Temperature  
Mean Temperature 57 °F -  
Max Temperature 73 °F - 86 °F (2017)
Min Temperature 41 °F - 28 °F (2008)
Degree Days  
Heating Degree Days 8    
Month to date heating degree days 27  
Cooling Degree Days 0    
Month to date cooling degree days 4  
Growing Degree Days 7 (Base 50)    
Moisture  
Dew Point 41 °F    
Average Humidity 66    
Maximum Humidity 100    
Minimum Humidity 19    
Precipitation  
Precipitation 0.00 in - 0.34 in (2013)
Snow  
Snow 0.00 in - - ()
Snow Depth 0.00 in    
Sea Level Pressure  
Sea Level Pressure 30.13 in    
Wind  
Wind Speed 3 mph ()    
Max Wind Speed 21 mph    
Max Gust Speed 28 mph    
Visibility 9.9 miles    
Events Fog    
T = Trace of Precipitation, MM = Missing Value Source: Averaged Metar Reports

Daily Weather History Graph

Daily Weather History Graph

Search for Another Location

Airport or City:

Astronomy

Sep. 09, 2019 Rise Set
Actual Time 6:40 AM MDT 7:24 PM MDT
Civil Twilight 6:13 AM MDT 7:51 PM MDT
Nautical Twilight 5:40 AM MDT 8:24 PM MDT
Astronomical Twilight 5:07 AM MDT 8:57 PM MDT
Moon 5:21 PM MDT (9/9) 2:14 AM MDT (9/9)
Length of Visible Light 13h 38m
Length of Day
12h 43m
Waxing Gibbous, 83% of the Moon is Illuminated
Sep 9
Waxing Gibbous
Sep 13
Full
Sep 21
Last Quarter
Sep 28
New
Oct 5
First Quarter

Hourly Weather History & Observations

Time (MDT) Temp. Windchill Dew Point Humidity Pressure Visibility Wind Dir Wind Speed Gust Speed Precip Events Conditions
12:06 AM 50.0 °F - 46.4 °F 87% 30.11 in 10.0 mi Calm Calm - N/A   Scattered Clouds
12:30 AM 48.2 °F - 48.2 °F 100% 30.10 in 10.0 mi Calm Calm - N/A   Scattered Clouds
12:47 AM 50.0 °F - 48.2 °F 94% 30.10 in 10.0 mi Calm Calm - N/A   Scattered Clouds
1:05 AM 48.2 °F - 46.4 °F 93% 30.11 in 10.0 mi Calm Calm - N/A   Scattered Clouds
1:29 AM 48.2 °F - 48.2 °F 100% 30.10 in 10.0 mi Calm Calm - N/A   Scattered Clouds
1:47 AM 48.2 °F - 48.2 °F 100% 30.10 in 10.0 mi Calm Calm - N/A   Clear
2:06 AM 48.2 °F - 48.2 °F 100% 30.09 in 10.0 mi ESE 3.5 mph - N/A   Clear
2:29 AM 44.6 °F - 44.6 °F 100% 30.10 in 10.0 mi Calm Calm - N/A   Clear
2:47 AM 44.6 °F - 44.6 °F 100% 30.10 in 10.0 mi Calm Calm - N/A   Clear
3:06 AM 44.6 °F 42.2 °F 44.6 °F 100% 30.10 in 0.5 mi SW 4.6 mph - N/A Fog Fog
3:30 AM 44.6 °F - 44.6 °F 100% 30.11 in 10.0 mi Calm Calm - N/A   Mostly Cloudy
3:48 AM 46.4 °F - 46.4 °F 100% 30.11 in 10.0 mi Calm Calm - N/A   Mostly Cloudy
4:06 AM 44.6 °F - 44.6 °F 100% 30.11 in 10.0 mi Calm Calm - N/A   Scattered Clouds
4:30 AM 44.6 °F - 44.6 °F 100% 30.12 in 10.0 mi Calm Calm - N/A   Scattered Clouds
4:48 AM 42.8 °F - 42.8 °F 100% 30.12 in 10.0 mi Calm Calm - N/A   Mostly Cloudy
5:06 AM 44.6 °F - 44.6 °F 100% 30.12 in 10.0 mi Calm Calm - N/A   Mostly Cloudy
5:30 AM 44.6 °F - 44.6 °F 100% 30.12 in 10.0 mi Calm Calm - N/A   Overcast
5:48 AM 44.6 °F - 44.6 °F 100% 30.13 in 10.0 mi Calm Calm - N/A   Overcast
6:08 AM 44.6 °F - 44.6 °F 100% 30.14 in 10.0 mi Calm Calm - N/A   Overcast
6:26 AM 44.6 °F - 44.6 °F 100% 30.14 in 10.0 mi Calm Calm - N/A   Overcast
6:50 AM 44.6 °F 42.2 °F 44.6 °F 100% 30.16 in 10.0 mi ESE 4.6 mph - N/A   Overcast
7:06 AM 44.6 °F 43.1 °F 44.6 °F 100% 30.16 in 10.0 mi ESE 3.5 mph - N/A   Overcast
7:30 AM 44.6 °F - 44.6 °F 100% 30.16 in 10.0 mi Calm Calm - N/A   Overcast
7:48 AM 46.4 °F - 46.4 °F 100% 30.17 in 10.0 mi Calm Calm - N/A   Overcast
8:06 AM 48.2 °F - 46.4 °F 93% 30.17 in 10.0 mi Calm Calm - N/A   Overcast
8:30 AM 48.2 °F - 46.4 °F 93% 30.16 in 10.0 mi Calm Calm - N/A   Overcast
8:48 AM 48.2 °F - 46.4 °F 93% 30.16 in 10.0 mi Calm Calm - N/A   Overcast
9:06 AM 48.2 °F - 44.6 °F 87% 30.17 in 10.0 mi Calm Calm - N/A   Overcast
9:30 AM 48.2 °F - 46.4 °F 93% 30.18 in 10.0 mi Calm Calm - N/A   Overcast
9:48 AM 50.0 °F - 46.4 °F 87% 30.18 in 10.0 mi East 3.5 mph - N/A   Overcast
10:06 AM 53.6 °F - 48.2 °F 82% 30.18 in 10.0 mi East 4.6 mph - N/A   Overcast
10:30 AM 55.4 °F - 46.4 °F 72% 30.18 in 10.0 mi Calm Calm - N/A   Overcast
10:48 AM 53.6 °F - 46.4 °F 77% 30.17 in 10.0 mi Calm Calm - N/A   Mostly Cloudy
11:06 AM 55.4 °F - 46.4 °F 72% 30.17 in 10.0 mi WSW 3.5 mph - N/A   Clear
11:29 AM 59.0 °F - 50.0 °F 72% 30.16 in 10.0 mi North 3.5 mph - N/A   Scattered Clouds
11:47 AM 59.0 °F - 50.0 °F 72% 30.16 in 10.0 mi NW 4.6 mph - N/A   Scattered Clouds
12:06 PM 60.8 °F - 50.0 °F 68% 30.14 in 10.0 mi Calm Calm - N/A   Scattered Clouds
12:30 PM 62.6 °F - 50.0 °F 63% 30.14 in 10.0 mi Calm Calm - N/A   Mostly Cloudy
12:48 PM 68.0 °F - 50.0 °F 52% 30.14 in 10.0 mi WSW 9.2 mph - N/A   Mostly Cloudy
1:06 PM 69.8 °F - 39.2 °F 33% 30.13 in 10.0 mi WSW 20.7 mph - N/A   Scattered Clouds
1:30 PM 71.6 °F - 37.4 °F 29% 30.12 in 10.0 mi WSW 10.4 mph 27.6 mph N/A   Clear
1:48 PM 73.4 °F - 37.4 °F 27% 30.12 in 10.0 mi SW 13.8 mph 23.0 mph N/A   Scattered Clouds
2:06 PM 73.4 °F - 37.4 °F 27% 30.11 in 10.0 mi West 16.1 mph 24.2 mph N/A   Scattered Clouds
2:30 PM 73.4 °F - 35.6 °F 25% 30.12 in 10.0 mi SW 16.1 mph 21.9 mph N/A   Scattered Clouds
2:48 PM 73.4 °F - 33.8 °F 23% 30.11 in 10.0 mi SW 13.8 mph 27.6 mph N/A   Clear
3:05 PM 73.4 °F - 33.8 °F 23% 30.11 in 10.0 mi West 13.8 mph 24.2 mph N/A   Scattered Clouds
3:29 PM 73.4 °F - 32.0 °F 22% 30.10 in 10.0 mi WSW 16.1 mph 24.2 mph N/A   Clear
3:47 PM 73.4 °F - 32.0 °F 22% 30.10 in 10.0 mi WSW 13.8 mph - N/A   Clear
4:06 PM 73.4 °F - 32.0 °F 22% 30.10 in 10.0 mi WSW 15.0 mph 23.0 mph N/A   Clear
4:30 PM 73.4 °F - 32.0 °F 22% 30.10 in 10.0 mi SW 13.8 mph 21.9 mph N/A   Clear
4:48 PM 73.4 °F - 32.0 °F 22% 30.10 in 10.0 mi WSW 13.8 mph 21.9 mph N/A   Clear
5:05 PM 73.4 °F - 32.0 °F 22% 30.10 in 10.0 mi SW 12.7 mph - N/A   Clear
5:29 PM 73.4 °F - 30.2 °F 20% 30.10 in 10.0 mi WSW 10.4 mph 19.6 mph N/A   Clear
5:47 PM 73.4 °F - 28.4 °F 19% 30.10 in 10.0 mi SW 12.7 mph 19.6 mph N/A   Clear
6:06 PM 73.4 °F - 30.2 °F 20% 30.10 in 10.0 mi West 13.8 mph 18.4 mph N/A   Clear
6:30 PM 69.8 °F - 30.2 °F 23% 30.11 in 10.0 mi West 8.1 mph - N/A   Clear
6:48 PM 68.0 °F - 28.4 °F 23% 30.11 in 10.0 mi West 5.8 mph - N/A   Clear
7:06 PM 68.0 °F - 32.0 °F 26% 30.11 in 10.0 mi West 4.6 mph - N/A   Clear
7:30 PM 62.6 °F - 32.0 °F 32% 30.12 in 10.0 mi WNW 3.5 mph - N/A   Clear
7:48 PM 60.8 °F - 30.2 °F 31% 30.12 in 10.0 mi WNW 4.6 mph - N/A   Clear
8:06 PM 60.8 °F - 32.0 °F 34% 30.12 in 10.0 mi West 3.5 mph - N/A   Clear
8:30 PM 57.2 °F - 32.0 °F 38% 30.14 in 10.0 mi Calm Calm - N/A   Clear
8:48 PM 55.4 °F - 33.8 °F 44% 30.14 in 10.0 mi Calm Calm - N/A   Clear
9:06 PM 53.6 °F - 37.4 °F 54% 30.14 in 10.0 mi Calm Calm - N/A   Clear
9:30 PM 53.6 °F - 37.4 °F 54% 30.16 in 10.0 mi Calm Calm - N/A   Clear
9:48 PM 51.8 °F - 37.4 °F 58% 30.16 in 10.0 mi Calm Calm - N/A   Clear
10:06 PM 53.6 °F - 39.2 °F 58% 30.16 in 10.0 mi Calm Calm - N/A   Clear
10:30 PM 50.0 °F - 39.2 °F 66% 30.16 in 10.0 mi Calm Calm - N/A   Clear
10:48 PM 48.2 °F - 37.4 °F 66% 30.17 in 10.0 mi Calm Calm - N/A   Clear
11:06 PM 48.2 °F - 41.0 °F 76% 30.17 in 10.0 mi Calm Calm - N/A   Clear
11:30 PM 44.6 °F - 39.2 °F 81% 30.17 in 10.0 mi Calm Calm - N/A   Clear
11:48 PM 42.8 °F - 37.4 °F 81% 30.17 in 10.0 mi Calm Calm - N/A   Clear